Weather in Kolesur

Russia / Udmurt Republic     57°19′01″N   52°14′49″E
temp.,
°C
wind,
m/s
gust,
m/s
humid.,
%
clouds,
%
prec.,
mm/h
press.,
hPa
HPBL,
m
21 april, wed
wed2101:000se23630 0.0 103143
04:000se25643 0.0 103186
07:00+2se3105325 0.0 1031286
10:00+8sse61036100 0.0 1029958
13:00+11sse7113196 0.0 10281253
16:00+11sse61237100 0.0 10261267
19:00+9s61239100 0.0 10261042
22:00+6s41252100 0.0 1025667
22 april, thu
thu2201:00+4sse61579100 1.0 10251017
04:00+3sse61496100 3.3 1024753
07:00+2sse51396100 0.9 1024654
10:00+3s51196100 1.3 1025615
13:00+5s51092100 0.0 1026603
16:00+7sse588699 0.0 1026681
19:00+7sse5981100 0.0 1026806
22:00+5sse51091100 0.0 1027480
23 april, fri
fri2301:00+4sse4893100 0.0 1026357
04:00+4sse3894100 0.0 1027337
07:00+4sse379495 0.0 1027339
10:00+6s368898 0.0 1027459
13:00+8sse347997 0.0 1027717
16:00+8se4477100 0.0 1027676
19:00+7se3581100 0.0 1027420
22:00+5ese2589100 0.0 1026255
24 april, sat
sat2401:00+5ene2585100 0.0 1025169
04:00+3ene379582 0.0 1023201
07:00+4ene3890100 0.0 1021282
10:00+8e4679100 0.0 1019655
13:00+6ese2694100 0.6 1017286
16:00+6ese3794100 1.2 1016464
19:00+6ese2698100 0.4 1015305
22:00+5ese2599100 1.6 1013199
25 april, sun
sun2501:00+5ese2599100 0.3 1012212
04:00+5se2698100 0.9 1010238
07:00+5se3796100 0.0 1009296
10:00+8sse61082100 0.3 10071196
13:00+5wsw5108999 3.1 10091017
16:00+8sw696551 3.3 10111549
19:00+7ssw227051 0.1 101141
22:00+4s2582100 0.2 1012113